Location: Bad Salzschlirf
(50.3750°N, 9.3000°E)
Time: 16:34:32
(UTC+02:00)

ISS - Pass Details

Date: 31 May 2020
Orbit: 417 x 420 km, 51.6° (Epoch: 25 May)

Event Time Altitude Azimuth Distance (km) Brightness Sun altitude
Rises 22:22:18 0° 285° (WNW) 2,366 1.1 -7.6°
Reaches altitude 10° 22:24:41 10° 269° (W) 1,499 -0.3 -7.8°
Maximum altitude 22:27:21 22° 217° (SW) 969 -2.0 -8.1°
Drops below altitude 10° 22:30:01 10° 164° (SSE) 1,493 -1.5 -8.4°
Enters shadow 22:30:04 10° 164° (SSE) 1,509 -1.5 -8.4°
